Location: Fort Worth, Tx
(32.7431°N, 97.3695°W)
Time: 09:54:11
(UTC-04:00)

A-11 Canister half - Pass Details

Date: 14 August 2024
Orbit: 1524 x 1684 km, 47.3° (Epoch: 13 September)

Event Time Altitude Azimuth Distance (km) Brightness Sun altitude
Rises 06:41:44 0° 307° (NW) 4,935 11.4 -14.6°
Reaches altitude 10° 06:44:58 10° 309° (NW) 3,937 10.9 -14.0°
Maximum altitude 06:55:05 71° 34° (NNE) 1,722 9.4 -12.1°
Drops below altitude 10° 07:04:51 10° 118° (ESE) 3,820 11.6 -10.2°
Sets 07:07:55 0° 120° (ESE) 4,782 12.1 -9.6°
